When you browse on this site, cookies collect data to enhance your experience and personalize the content and advertising you see.
Visit our Privacy Policy to learn more. By continuing to use the site, you agree to this use of cookies and data.
  • En España
  • Lista de países
  • Para 7 días
  • Temperatura del agua
  • Mapa Satelital
  • El tiempo en el mapa
  • Informadores
  • user-avatar
    Iniciar sesión

    Tiempo cada hora Akaba

    Hoy, 18 Enero, Viernes

    Tiempo Temperatura Precipitaciones Viento Presión Humedad
    00:00 +10°C° 0 mm 2 mps 755 mmHg 76%
    01:00 +10°C° 0 mm 2 mps 755 mmHg 78%
    02:00 +10°C° 0 mm 2 mps 755 mmHg 80%
    03:00 +9°C° 0 mm 2 mps 755 mmHg 81%
    04:00 +9°C° 0 mm 2 mps 755 mmHg 82%
    05:00 +9°C° 0 mm 2 mps 755 mmHg 83%
    06:00 +10°C° 0 mm 2 mps 755 mmHg 79%
    07:00 +10°C° 0 mm 2 mps 755 mmHg 75%
    08:00 +12°C° 0 mm 2 mps 755 mmHg 71%
    09:00 +13°C° 0 mm 2 mps 755 mmHg 63%
    10:00 +15°C° 0 mm 2 mps 755 mmHg 55%
    11:00 +16°C° 0 mm 2 mps 755 mmHg 47%
    12:00 +17°C° 0 mm 2 mps 754 mmHg 43%
    13:00 +18°C° 0 mm 3 mps 754 mmHg 39%
    14:00 +19°C° 0 mm 3 mps 753 mmHg 35%
    15:00 +18°C° 0 mm 3 mps 753 mmHg 36%
    16:00 +18°C° 0 mm 3 mps 753 mmHg 38%
    17:00 +17°C° 0 mm 3 mps 753 mmHg 39%
    18:00 +17°C° 0 mm 3 mps 754 mmHg 42%
    19:00 +16°C° 0 mm 3 mps 754 mmHg 45%
    20:00 +15°C° 0 mm 2 mps 755 mmHg 48%
    21:00 +15°C° 0 mm 2 mps 755 mmHg 49%
    22:00 +14°C° 0 mm 2 mps 755 mmHg 51%
    23:00 +14°C° 0 mm 2 mps 755 mmHg 52%

    Mañana, 19 Enero, Sábado

    Tiempo Temperatura Precipitaciones Viento Presión Humedad
    00:00 +13°C° 0 mm 2 mps 754 mmHg 53%
    01:00 +13°C° 0 mm 2 mps 754 mmHg 54%
    02:00 +13°C° 0 mm 2 mps 754 mmHg 56%
    03:00 +12°C° 0 mm 2 mps 754 mmHg 57%
    04:00 +12°C° 0 mm 2 mps 754 mmHg 58%
    05:00 +12°C° 0 mm 2 mps 754 mmHg 59%
    06:00 +12°C° 0 mm 2 mps 754 mmHg 57%
    07:00 +13°C° 0 mm 2 mps 754 mmHg 54%
    08:00 +14°C° 0 mm 2 mps 755 mmHg 52%
    09:00 +15°C° 0 mm 2 mps 754 mmHg 46%
    10:00 +17°C° 0 mm 2 mps 754 mmHg 40%
    11:00 +18°C° 0 mm 2 mps 754 mmHg 34%
    12:00 +19°C° 0 mm 2 mps 753 mmHg 31%
    13:00 +20°C° 0 mm 2 mps 753 mmHg 28%
    14:00 +21°C° 0 mm 2 mps 752 mmHg 25%
    15:00 +20°C° 0 mm 2 mps 752 mmHg 25%
    16:00 +20°C° 0 mm 2 mps 752 mmHg 25%
    17:00 +19°C° 0 mm 2 mps 752 mmHg 26%
    18:00 +18°C° 0 mm 2 mps 752 mmHg 28%
    19:00 +17°C° 0 mm 2 mps 753 mmHg 30%
    20:00 +16°C° 0 mm 2 mps 753 mmHg 32%
    21:00 +16°C° 0 mm 2 mps 753 mmHg 34%
    22:00 +15°C° 0 mm 1 mps 753 mmHg 36%
    23:00 +15°C° 0 mm 1 mps 754 mmHg 38%

    Pasado mañana, 20 Enero, Domingo

    Tiempo Temperatura Precipitaciones Viento Presión Humedad
    00:00 +14°C° 0 mm 1 mps 753 mmHg 39%
    01:00 +14°C° 0 mm 1 mps 753 mmHg 41%
    02:00 +14°C° 0 mm 2 mps 753 mmHg 42%
    03:00 +14°C° 0 mm 2 mps 753 mmHg 43%
    04:00 +13°C° 0 mm 2 mps 753 mmHg 44%
    05:00 +13°C° 0 mm 2 mps 752 mmHg 45%
    06:00 +14°C° 0 mm 2 mps 753 mmHg 42%
    07:00 +15°C° 0 mm 2 mps 753 mmHg 39%
    08:00 +15°C° 0 mm 2 mps 754 mmHg 36%
    09:00 +18°C° 0 mm 1 mps 754 mmHg 31%
    10:00 +20°C° 0 mm 1 mps 753 mmHg 27%
    11:00 +21°C° 0 mm 1 mps 753 mmHg 23%
    12:00 +22°C° 0 mm 1 mps 753 mmHg 21%
    13:00 +23°C° 0 mm 1 mps 752 mmHg 20%
    14:00 +21°C° 0 mm 0 mps 751 mmHg 18%
    15:00 +23°C° 0 mm 1 mps 751 mmHg 18%
    16:00 +22°C° 0 mm 1 mps 751 mmHg 18%
    17:00 +21°C° 0 mm 1 mps 751 mmHg 19%
    18:00 +20°C° 0 mm 1 mps 752 mmHg 19%
    19:00 +20°C° 0 mm 1 mps 752 mmHg 20%
    20:00 +18°C° 0 mm 2 mps 752 mmHg 21%
    21:00 +18°C° 0 mm 2 mps 753 mmHg 22%
    22:00 +18°C° 0 mm 1 mps 753 mmHg 23%
    23:00 +18°C° 0 mm 1 mps 753 mmHg 24%

    21 Enero, Lunes

    Tiempo Temperatura Precipitaciones Viento Presión Humedad
    00:00 +17°C° 0 mm 2 mps 753 mmHg 24%
    01:00 +17°C° 0 mm 2 mps 752 mmHg 24%
    02:00 +17°C° 0 mm 2 mps 752 mmHg 24%
    03:00 +17°C° 0 mm 2 mps 752 mmHg 24%
    04:00 +16°C° 0 mm 2 mps 752 mmHg 24%
    05:00 +16°C° 0 mm 2 mps 752 mmHg 25%
    06:00 +17°C° 0 mm 2 mps 752 mmHg 25%
    07:00 +18°C° 0 mm 1 mps 752 mmHg 26%
    08:00 +19°C° 0 mm 1 mps 753 mmHg 27%
    09:00 +20°C° 0 mm 1 mps 753 mmHg 30%
    10:00 +20°C° 0 mm 2 mps 753 mmHg 33%
    11:00 +21°C° 0 mm 2 mps 753 mmHg 36%
    12:00 +23°C° 0 mm 2 mps 752 mmHg 35%
    13:00 +22°C° 0 mm 3 mps 752 mmHg 35%
    14:00 +24°C° 0 mm 3 mps 751 mmHg 34%
    15:00 +22°C° 0 mm 3 mps 751 mmHg 35%
    16:00 +22°C° 0 mm 3 mps 751 mmHg 37%
    17:00 +21°C° 0 mm 3 mps 752 mmHg 38%
    18:00 +20°C° 0 mm 3 mps 752 mmHg 41%
    19:00 +19°C° 0 mm 3 mps 753 mmHg 44%
    20:00 +18°C° 0 mm 2 mps 753 mmHg 46%
    21:00 +17°C° 0 mm 2 mps 753 mmHg 48%
    22:00 +17°C° 0 mm 2 mps 753 mmHg 49%
    23:00 +16°C° 0 mm 2 mps 753 mmHg 50%

    22 Enero, Martes

    Tiempo Temperatura Precipitaciones Viento Presión Humedad
    00:00 +16°C° 0 mm 1 mps 753 mmHg 51%
    01:00 +15°C° 0 mm 1 mps 753 mmHg 51%
    02:00 +15°C° 0 mm 1 mps 753 mmHg 52%
    03:00 +15°C° 0 mm 1 mps 753 mmHg 52%
    04:00 +14°C° 0 mm 1 mps 752 mmHg 52%
    05:00 +14°C° 0 mm 1 mps 752 mmHg 52%
    06:00 +15°C° 0 mm 1 mps 753 mmHg 49%
    07:00 +16°C° 0 mm 1 mps 753 mmHg 46%
    08:00 +17°C° 0 mm 2 mps 753 mmHg 42%
    09:00 +19°C° 0 mm 1 mps 753 mmHg 38%
    10:00 +20°C° 0 mm 1 mps 753 mmHg 35%
    11:00 +22°C° 0 mm 1 mps 752 mmHg 31%
    12:00 +22°C° 0 mm 1 mps 752 mmHg 29%
    13:00 +23°C° 0 mm 1 mps 751 mmHg 27%
    14:00 +24°C° 0 mm 1 mps 751 mmHg 24%
    15:00 +23°C° 0 mm 1 mps 751 mmHg 25%
    16:00 +22°C° 0 mm 1 mps 751 mmHg 25%
    17:00 +22°C° 0 mm 1 mps 751 mmHg 26%
    18:00 +21°C° 0 mm 1 mps 751 mmHg 27%
    19:00 +20°C° 0 mm 1 mps 751 mmHg 28%
    20:00 +19°C° 0 mm 1 mps 752 mmHg 30%
    21:00 +19°C° 0 mm 1 mps 751 mmHg 30%
    22:00 +18°C° 0 mm 1 mps 751 mmHg 31%
    23:00 +18°C° 0 mm 1 mps 751 mmHg 31%

    23 Enero, Miércoles

    Tiempo Temperatura Precipitaciones Viento Presión Humedad
    00:00 +16°C° 0 mm 1 mps 751 mmHg 32%
    01:00 +16°C° 0 mm 1 mps 751 mmHg 32%
    02:00 +15°C° 0 mm 1 mps 750 mmHg 32%
    03:00 +15°C° 0 mm 1 mps 750 mmHg 32%
    04:00 +15°C° 0 mm 1 mps 750 mmHg 32%
    05:00 +15°C° 0 mm 1 mps 750 mmHg 32%
    06:00 +16°C° 0 mm 1 mps 750 mmHg 29%
    07:00 +17°C° 0 mm 2 mps 751 mmHg 27%
    08:00 +18°C° 0 mm 2 mps 751 mmHg 25%
    09:00 +20°C° 0 mm 2 mps 751 mmHg 22%
    10:00 +23°C° 0 mm 2 mps 750 mmHg 20%
    11:00 +25°C° 0 mm 2 mps 750 mmHg 17%
    12:00 +25°C° 0 mm 2 mps 749 mmHg 17%
    13:00 +26°C° 0 mm 3 mps 749 mmHg 16%
    14:00 +27°C° 0 mm 3 mps 748 mmHg 15%
    15:00 +26°C° 0 mm 3 mps 748 mmHg 17%
    16:00 +25°C° 0 mm 2 mps 748 mmHg 18%
    17:00 +24°C° 0 mm 2 mps 748 mmHg 19%
    18:00 +23°C° 0 mm 2 mps 748 mmHg 20%
    19:00 +23°C° 0 mm 2 mps 748 mmHg 20%
    20:00 +21°C° 0 mm 3 mps 749 mmHg 21%
    21:00 +21°C° 0 mm 3 mps 748 mmHg 21%
    22:00 +20°C° 0 mm 3 mps 748 mmHg 22%
    23:00 +20°C° 0 mm 2 mps 748 mmHg 22%
    Mostrar más